Regional Weather Roundup
Issued by NWS

Home | Current Version | Previous Version | Text Only | Print | Product List | Glossary Off
Versions: 1 2 3 4 5 6 7 8 9 10 11 12 13 14 15 16 17 18 19 20 21 22 23 24 25 26 27 28 29 30 31 32 33 34 35 36 37 38 39 40 41 42 43 44 45 46 47 48 49 50

000
ASUS43 KOAX 260410
RWRNE

WEATHER ROUNDUP FOR NEBRASKA
NATIONAL WEATHER SERVICE OMAHA NE
1100 PM CDT WED MAY 25 2016

NOTES: SATELLITE DATA IS BEING USED TO AUGMENT CLOUD COVER ABOVE
       12000 FEET.
       "FAIR" INDICATES FEW OR NO CLOUDS BELOW 12,000 FEET WITH NO
       SIGNIFICANT WEATHER AND/OR OBSTRUCTIONS TO VISIBILITY.

  * THESE STATIONS DO NOT REPORT WEATHER SUCH AS RAIN...SNOW OR FOG.

NEZ001>004-019>022-054>056-260500-
NEBRASKA PANHANDLE

CITY           SKY/WX    TMP DP  RH WIND       PRES   REMARKS
SCOTTSBLUFF    CLOUDY    56  46  69 W3        29.97R
ALLIANCE       CLOUDY    52  45  77 NE5       29.95R
CHADRON        CLEAR     51  44  77 CALM      29.92R
KIMBALL        CLOUDY    55  41  60 NW12      30.01R
SIDNEY         CLOUDY    53  45  74 NW12      30.00R
$$

NEZ057>060-069>072-079>082-260500-
SOUTHWEST NEBRASKA

CITY           SKY/WX    TMP DP  RH WIND       PRES   REMARKS
NORTH PLATTE   CLOUDY    55  52  89 SE3       29.93R
IMPERIAL       CLOUDY    55  50  83 NE7       29.92F
LEXINGTON      CLOUDY    58  52  80 E8        29.91F
MCCOOK         CLOUDY    59  51  75 E9        29.92F
OGALLALA       CLOUDY    52  49  87 N6        29.93F
$$

NEZ005>010-023>029-035>040-094-260500-
NORTH CENTRAL NEBRASKA

CITY           SKY/WX    TMP DP  RH WIND       PRES   REMARKS
VALENTINE      CLOUDY    55  46  71 W6        29.89R
AINSWORTH      CLOUDY    57  49  75 CALM      29.89R
BROKEN BOW     CLOUDY    60  52  74 NE5       29.91R
O`NEILL        CLOUDY    61  54  75 SW3       29.87R
ORD            CLOUDY    67  47  48 VRB7G24   29.87F
THEDFORD       CLOUDY    59  48  65 CALM      29.92S
$$

NEZ041-046>049-061>064-073>077-083>087-260500-
SOUTH CENTRAL NEBRASKA

CITY           SKY/WX    TMP DP  RH WIND       PRES   REMARKS
GRAND ISLAND   TSTM      59  54  83 W31G45    29.98R
AURORA         CLOUDY    69  66  92 W10       29.91R
HASTINGS       TSTM      59  54  83 NW26G38   29.94R
HEBRON         PTCLDY    70  68  93 NW7       29.88R
HOLDREGE       LGT RAIN  61  52  71 N13       29.93R
KEARNEY *      CLOUDY    59  52  77 N21       29.94F
YORK           PTCLDY    68  64  88 SW5       29.87R
$$

NEZ011>018-030>034-042>045-260500-
NORTHEAST NEBRASKA

CITY           SKY/WX    TMP DP  RH WIND       PRES   REMARKS
NORFOLK        CLOUDY    68  60  75 SW7       29.84R
ALBION         CLOUDY    69  56  63 NW3       29.86R
BLAIR          CLOUDY    69  66  89 CALM      29.84S
FREMONT        CLEAR     69  65  86 CALM      29.84S
TEKAMAH        PTCLDY    69  64  84 S7        29.82R
WAYNE          PTCLDY    70  66  86 S9        29.83R
$$

NEZ050>053-065>068-078-088>093-260500-
SOUTHEAST NEBRASKA

CITY           SKY/WX    TMP DP  RH WIND       PRES   REMARKS
LINCOLN        MOCLDY    72  68  87 CALM      29.85R
OMAHA EPPLEY   CLOUDY    71  66  84 S3        29.83S
BEATRICE       CLOUDY    72  69  89 E3        29.85R
FALLS CITY     CLOUDY    75  68  78 SE6       29.82R THUNDER
NEBRASKA CITY  CLOUDY    72  68  88 SE3       29.84S
PLATTSMOUTH    CLOUDY    73  70  92 SE5       29.84S
$$

NEZ044-045-051>053-067-260500-
OMAHA AREA

CITY           SKY/WX    TMP DP  RH WIND       PRES   REMARKS
OMAHA EPPLEY   CLOUDY    71  66  84 S3        29.83S
BLAIR          CLOUDY    69  66  89 CALM      29.84S
FREMONT        CLEAR     69  65  86 CALM      29.84S
MILLARD        CLOUDY    69  67  93 CALM      29.84R
OFFUTT AFB     PTCLDY    67  67 100 SE2       29.83S
PLATTSMOUTH    CLOUDY    73  70  92 SE5       29.84S
WAHOO          FAIR      69  66  90 S5        29.83F
$$




USA.gov is the U.S. government's official web portal to all federal, state and local government web resources and services.